Weather in Shushenskoe

Russia / Krasnoyarsk Krai     53°19′44″N   91°57′02″E
temp.,
°C
wind,
m/s
gust,
m/s
humid.,
%
clouds,
%
prec.,
mm/h
press.,
hPa
HPBL,
m
18 may, tue
tue1801:00+11w119244 0.8 101411
04:00+10se1192100 0.0 101311
07:00+12sse12876 0.1 1012118
10:00+16wsw3872100 0.1 1008823
13:00+20wsw91564100 0.8 10051739
16:00+21sw91960100 0.6 9991828
19:00+18w12187156 2.8 1000889
22:00+11nw1116775 0.6 1007695
19 may, wed
wed1901:00+10sw2486100 0.6 1009121
04:00+8ne229074 0.0 100614
07:00+10ese3486100 0.1 1004264
10:00+10ssw1289100 1.5 1001266
13:00+9n5796100 5.5 1001421
16:00+6nw5795100 6.7 1005380
19:00+6w4596100 8.9 1006305
22:00+6wsw3695100 0.9 1007374
20 may, thu
thu2001:00+6w3489100 2.3 1006168
04:00+5wsw3586100 0.7 1006108
07:00+4wnw4782100 0.8 1007454
10:00+6nw5562100 0.1 10071276
13:00+8nnw5554100 0.2 10071639
16:00+8nnw5654100 0.1 10081806
19:00+7nnw61055100 0.1 1010645
22:00+5nw4953100 0.0 1013298
21 may, fri
fri2101:00+3wnw4965100 0.0 1015306
04:00+3wnw51071100 0.0 1016499
07:00+3wnw4876100 0.0 1018774
10:00+5wnw6769100 0.2 10201142
13:00+8wnw5752100 0.5 10201694
16:00+8wnw6660100 0.2 10201423
19:00+6wsw5786100 1.1 1022437
22:00+4wsw6109393 0.4 1024317
22 may, sat
sat2201:00+3sw349580 0.6 102576
04:00+2sw229145 0.0 102519
07:00+5sw12815 0.0 1025172
10:00+10w22575 0.1 10231077
13:00+13wnw1344100 0.1 10212081
16:00+14nnw244056 0.0 10192152
19:00+13w225688 0.0 101963
22:00+8ssw2263100 0.0 102015